GW0996 Weather Reports


time (UTC)temp
C
wind
direction
speed
KPH
gust
KPH
rain 1hr
cm
rain 24hr
cm
rain mn
cm
humidity
%
barometer
mb
20260902100135 31 152 0.0 1.6 0.00 0.00 0.00 37 1018.1
20260902095131 30 151 0.0 1.6 0.00 0.00 0.00 39 1018.3
20260902094633 30 170 0.0 1.6 0.00 0.00 0.00 39 1018.2
20260902094133 30 276 0.0 1.6 0.00 0.00 0.00 38 1018.3
20260902093130 29 145 0.0 1.6 0.00 0.00 0.00 43 1018.2
20260902092633 30 243 1.6 1.6 0.00 0.00 0.00 39 1018.4
20260902092132 29 295 0.0 1.6 0.00 0.00 0.00 39 1018.4
20260902091630 27 296 0.0 3.2 0.00 0.00 0.00 44 1018.6
20260902091136 28 310 0.0 3.2 0.00 0.00 0.00 44 1018.6
20260902090633 27 47 0.0 1.6 0.00 0.00 0.00 49 1018.6
20260902090135 27 44 0.0 1.6 0.00 0.00 0.00 47 1018.6
20260902085633 27 334 0.0 1.6 0.00 0.00 0.00 51 1018.4
20260902085132 27 327 1.6 1.6 0.00 0.00 0.00 50 1018.4
20260902084139 25 331 0.0 3.2 0.00 0.00 0.00 54 1018.7
20260902083632 25 323 0.0 3.2 0.00 0.00 0.00 55 1018.6
20260902083133 25 313 0.0 1.6 0.00 0.00 0.00 55 1018.5
20260902082637 25 313 0.0 3.2 0.00 0.00 0.00 57 1018.5
20260902082137 25 313 0.0 3.2 0.00 0.00 0.00 57 1018.6
20260902081133 24 311 0.0 0.0 0.00 0.00 0.00 60 1018.3
20260902080131 23 310 0.0 0.0 0.00 0.00 0.00 62 1018.3
20260902075632 23 310 0.0 0.0 0.00 0.00 0.00 62 1018.6
20260902075223 23 310 0.0 0.0 0.00 0.00 0.00 64 1018.2
20260902074621 23 310 0.0 0.0 0.00 0.00 0.00 63 1018.3
20260902073555 22 310 0.0 0.0 0.00 0.00 0.00 66 1018.2
20260902073055 22 310 0.0 0.0 0.00 0.00 0.00 65 1018.4
20260902072548 22 310 0.0 0.0 0.00 0.00 0.00 67 1018.1
20260902072046 21 310 0.0 0.0 0.00 0.00 0.00 67 1018.2
20260902071549 21 310 0.0 0.0 0.00 0.00 0.00 67 1018.3
20260902071047 20 310 0.0 0.0 0.00 0.00 0.00 72 1018.3
20260902070545 19 311 0.0 0.0 0.00 0.00 0.00 72 1018.4
20260902070051 20 311 0.0 0.0 0.00 0.00 0.00 72 1018.2
20260902065542 19 311 0.0 0.0 0.00 0.00 0.00 72 1018.4
20260902064545 19 311 0.0 0.0 0.00 0.00 0.00 72 1018.4
20260902064049 18 311 0.0 0.0 0.00 0.00 0.00 73 1018.2
20260902063543 18 311 0.0 0.0 0.00 0.00 0.00 73 1018.1
20260902063046 18 310 0.0 0.0 0.00 0.00 0.00 75 1018.3
20260902062544 18 310 0.0 0.0 0.00 0.00 0.00 73 1018.2
20260902062044 17 310 0.0 0.0 0.00 0.00 0.00 75 1018.4
20260902061545 17 310 0.0 0.0 0.00 0.00 0.00 74 1018.4
20260902060542 16 311 0.0 1.6 0.00 0.00 0.00 79 1018.2
20260902060046 16 310 0.0 0.0 0.00 0.00 0.00 78 1018.4
20260902055543 16 311 0.0 0.0 0.00 0.00 0.00 79 1018.5
20260902055038 15 311 0.0 0.0 0.00 0.00 0.00 82 1018.3
20260902054533 15 311 0.0 0.0 0.00 0.00 0.00 84 1018.2
20260902054034 14 311 0.0 0.0 0.00 0.00 0.00 85 1018.2
20260902053032 13 311 0.0 0.0 0.00 0.00 0.00 86 1018.3
20260902052530 13 311 0.0 0.0 0.00 0.00 0.00 86 1018.1
20260902051530 13 311 0.0 0.0 0.00 0.00 0.00 85 1018.3
20260902051021 13 311 0.0 0.0 0.00 0.00 0.00 86 1018.1
20260902050522 13 311 0.0 0.0 0.00 0.00 0.00 87 1018.1
20260902050019 13 311 0.0 0.0 0.00 0.00 0.00 87 1018.2
20260902045522 13 311 0.0 0.0 0.00 0.00 0.00 87 1018.1
20260902045018 13 311 0.0 1.6 0.00 0.00 0.00 87 1018.2
20260902044519 13 311 0.0 1.6 0.00 0.00 0.00 87 1018.1
20260902043457 13 311 0.0 3.2 0.00 0.00 0.00 86 1018.2
20260902042456 13 311 1.6 3.2 0.00 0.00 0.00 87 1017.9
20260902041957 13 311 0.0 0.0 0.00 0.00 0.00 88 1018.0
20260902041444 13 311 0.0 0.0 0.00 0.00 0.00 87 1017.9
20260902040944 13 311 0.0 0.0 0.00 0.00 0.00 88 1017.7
20260902035943 13 311 0.0 0.0 0.00 0.00 0.00 87 1017.8
20260902035444 13 311 0.0 0.0 0.00 0.00 0.00 87 1017.9
20260902034942 13 311 0.0 0.0 0.00 0.00 0.00 86 1017.9
20260902034442 13 311 0.0 0.0 0.00 0.00 0.00 86 1017.9
20260902033931 13 311 0.0 0.0 0.00 0.00 0.00 86 1017.9
20260902033434 13 311 0.0 0.0 0.00 0.00 0.00 86 1017.8
20260902032431 13 311 0.0 0.0 0.00 0.00 0.00 86 1017.8
20260902031931 13 311 0.0 0.0 0.00 0.00 0.00 86 1017.8
20260902031432 13 311 0.0 0.0 0.00 0.00 0.00 85 1017.7
20260902030919 13 311 0.0 0.0 0.00 0.00 0.00 85 1017.7
20260902030422 13 311 0.0 1.6 0.00 0.00 0.00 84 1017.9
20260902025419 14 311 0.0 1.6 0.00 0.00 0.00 83 1017.9
20260902024920 14 311 0.0 3.2 0.00 0.00 0.00 83 1017.8
20260902024418 14 311 0.0 4.8 0.00 0.00 0.00 82 1017.6
20260902023424 13 329 0.0 1.6 0.00 0.00 0.00 85 1017.8
20260902021924 14 329 0.0 0.0 0.00 0.00 0.00 84 1017.8
20260902021409 14 329 0.0 0.0 0.00 0.00 0.00 84 1017.8
20260902020909 14 329 0.0 0.0 0.00 0.00 0.00 83 1017.7
20260902020407 14 329 0.0 0.0 0.00 0.00 0.00 82 1017.6
20260902015845 14 329 0.0 0.0 0.00 0.00 0.00 82 1017.8
20260902015346 14 329 0.0 0.0 0.00 0.00 0.00 82 1017.6
20260902014838 14 329 0.0 0.0 0.00 0.00 0.00 82 1017.6
20260902014331 14 329 0.0 0.0 0.00 0.00 0.00 81 1017.7
20260902013835 14 329 0.0 0.0 0.00 0.00 0.00 82 1017.5
20260902013335 14 329 0.0 0.0 0.00 0.00 0.00 82 1017.6
20260902012837 14 329 0.0 0.0 0.00 0.00 0.00 81 1017.7
20260902011334 15 329 0.0 1.6 0.00 0.00 0.00 79 1017.8
20260902010837 15 329 0.0 3.2 0.00 0.00 0.00 79 1018.0
20260902010331 15 329 0.0 3.2 0.00 0.00 0.00 80 1017.8
20260902004823 15 330 0.0 0.0 0.00 0.00 0.00 80 1017.7
20260902004320 15 330 0.0 0.0 0.00 0.00 0.00 80 1017.6
20260902002320 15 329 0.0 0.0 0.00 0.00 0.00 77 1017.7
20260902001821 16 329 0.0 0.0 0.00 0.00 0.00 77 1017.8
20260902001307 16 329 0.0 0.0 0.00 0.00 0.00 76 1017.9
20260902000807 16 329 0.0 0.0 0.00 0.00 0.00 76 1017.9
20260902000258 16 329 0.0 0.0 0.00 0.00 0.00 75 1017.9
20260901235755 16 329 0.0 0.0 0.00 0.00 0.00 75 1017.8
20260901235256 16 329 0.0 0.0 0.00 0.00 0.00 75 1017.9
20260901234247 16 329 0.0 3.2 0.00 0.00 0.00 74 1018.1
20260901233748 16 335 0.0 1.6 0.00 0.00 0.00 74 1018.1
20260901233245 16 329 1.6 1.6 0.00 0.00 0.00 75 1018.0
20260901232246 17 334 0.0 0.0 0.00 0.00 0.00 75 1017.9
20260901231746 17 334 0.0 0.0 0.00 0.00 0.00 75 1017.9
20260901230742 17 334 0.0 0.0 0.00 0.00 0.00 73 1018.1
20260901230243 17 334 0.0 0.0 0.00 0.00 0.00 74 1018.1
20260901225247 17 333 0.0 1.6 0.00 0.00 0.00 73 1018.0
20260901224735 18 333 0.0 1.6 0.00 0.00 0.00 72 1018.0
20260901224234 17 333 1.6 1.6 0.00 0.00 0.00 72 1017.9
20260901223238 18 333 0.0 1.6 0.00 0.00 0.00 73 1018.0
20260901222730 18 333 0.0 1.6 0.00 0.00 0.00 73 1018.1
20260901222232 18 333 0.0 1.6 0.00 0.00 0.00 73 1018.0
20260901221736 18 338 0.0 0.0 0.00 0.00 0.00 73 1018.2
20260901220727 19 337 0.0 0.0 0.00 0.00 0.00 72 1018.0
20260901220200 19 337 0.0 0.0 0.00 0.00 0.00 72 1017.9
20260901215658 19 337 0.0 3.2 0.00 0.00 0.00 71 1018.0
20260901215148 19 336 0.0 3.2 0.00 0.00 0.00 71 1018.0
20260901214646 19 339 0.0 3.2 0.00 0.00 0.00 71 1018.0
20260901214145 20 339 0.0 3.2 0.00 0.00 0.00 72 1017.8
20260901213634 19 349 0.0 0.0 0.00 0.00 0.00 72 1017.8
20260901213130 20 349 0.0 0.0 0.00 0.00 0.00 71 1017.8
20260901212634 20 349 0.0 1.6 0.00 0.00 0.00 71 1017.9
20260901212131 20 349 0.0 1.6 0.00 0.00 0.00 70 1017.9
20260901211630 20 349 0.0 1.6 0.00 0.00 0.00 70 1017.9
20260901211133 20 349 0.0 0.0 0.00 0.00 0.00 69 1017.6
20260901210632 21 349 0.0 3.2 0.00 0.00 0.00 68 1017.7
20260901210135 21 348 0.0 3.2 0.00 0.00 0.00 69 1018.0
20260901205635 21 353 0.0 1.6 0.00 0.00 0.00 69 1017.9
20260901205134 21 353 0.0 1.6 0.00 0.00 0.00 69 1017.9
20260901204638 21 352 0.0 1.6 0.00 0.00 0.00 68 1017.8
20260901204136 21 354 0.0 0.0 0.00 0.00 0.00 67 1017.8
20260901203634 21 354 0.0 0.0 0.00 0.00 0.00 66 1017.8
20260901203133 22 354 0.0 1.6 0.00 0.00 0.00 66 1017.9
20260901202643 22 353 0.0 1.6 0.00 0.00 0.00 65 1017.5
20260901201633 22 336 0.0 3.2 0.00 0.00 0.00 63 1017.8
20260901200134 22 314 0.0 1.6 0.00 0.00 0.00 65 1017.7
20260901195638 22 318 0.0 1.6 0.00 0.00 0.00 65 1017.5
20260901195133 22 319 0.0 1.6 0.00 0.00 0.00 65 1017.5
20260901194634 23 317 0.0 1.6 0.00 0.00 0.00 64 1017.4
20260901194139 23 317 0.0 6.4 0.00 0.00 0.00 63 1017.2
20260901193630 23 316 0.0 6.4 0.00 0.00 0.00 64 1017.5
20260901192633 23 308 1.6 4.8 0.00 0.00 0.00 64 1016.8
20260901192137 23 302 0.0 4.8 0.00 0.00 0.00 64 1017.1
20260901191634 24 318 1.6 4.8 0.00 0.00 0.00 63 1017.0
20260901191136 24 311 0.0 3.2 0.00 0.00 0.00 63 1016.9
20260901190634 25 311 0.0 3.2 0.00 0.00 0.00 61 1016.8
20260901190137 25 314 0.0 4.8 0.00 0.00 0.00 60 1016.5
20260901185635 25 309 0.0 6.4 0.00 0.00 0.00 59 1016.4
20260901185133 26 308 4.8 6.4 0.00 0.00 0.00 55 1016.7
20260901184634 26 314 1.6 6.4 0.00 0.00 0.00 55 1016.6
20260901184141 26 317 3.2 6.4 0.00 0.00 0.00 51 1016.4
20260901183634 26 317 1.6 4.8 0.00 0.00 0.00 51 1016.4
20260901183130 26 320 1.6 6.4 0.00 0.00 0.00 51 1016.4
20260901182140 27 307 4.8 9.7 0.00 0.00 0.00 53 1016.3
20260901181646 27 316 0.0 9.7 0.00 0.00 0.00 58 1016.1
20260901181135 27 314 1.6 4.8 0.00 0.00 0.00 59 1016.2
20260901180633 27 309 0.0 4.8 0.00 0.00 0.00 59 1016.4
20260901180131 27 310 0.0 4.8 0.00 0.00 0.00 58 1016.3
20260901175633 27 312 1.6 3.2 0.00 0.00 0.00 58 1016.3
20260901175131 27 312 0.0 3.2 0.00 0.00 0.00 57 1016.1
20260901174631 28 308 0.0 3.2 0.00 0.00 0.00 56 1016.1
20260901174119 28 309 1.6 3.2 0.00 0.00 0.00 55 1016.0
20260901173620 28 304 0.0 9.7 0.00 0.00 0.00 54 1015.6
20260901172622 28 320 0.0 6.4 0.00 0.00 0.00 53 1015.8
20260901172119 29 311 3.2 4.8 0.00 0.00 0.00 53 1015.8
20260901171621 29 345 0.0 3.2 0.00 0.00 0.00 52 1015.6
20260901171119 29 3 1.6 6.4 0.00 0.00 0.00 52 1015.4
20260901170609 29 310 0.0 6.4 0.00 0.00 0.00 51 1015.6
20260901170106 30 313 1.6 4.8 0.00 0.00 0.00 50 1015.5
20260901165607 30 311 0.0 3.2 0.00 0.00 0.00 50 1015.6
20260901165044 30 71 1.6 6.4 0.00 0.00 0.00 48 1015.6
20260901164545 30 320 0.0 6.4 0.00 0.00 0.00 48 1015.4
20260901164031 30 317 1.6 9.7 0.00 0.00 0.00 47 1015.6
20260901163030 30 315 0.0 6.4 0.00 0.00 0.00 47 1015.7
20260901162534 30 44 0.0 1.6 0.00 0.00 0.00 46 1015.7
20260901162035 30 107 0.0 1.6 0.00 0.00 0.00 45 1015.6
20260901161034 31 52 0.0 1.6 0.00 0.00 0.00 44 1015.5
20260901160522 31 43 0.0 3.2 0.00 0.00 0.00 44 1015.5
20260901160013 31 349 0.0 9.7 0.00 0.00 0.00 44 1015.7
20260901155455 31 317 0.0 9.7 0.00 0.00 0.00 44 1015.7
20260901154948 31 315 3.2 9.7 0.00 0.00 0.00 44 1015.6
20260901153932 30 310 3.2 6.4 0.00 0.00 0.00 44 1015.8
20260901153435 30 327 3.2 11.3 0.00 0.00 0.00 44 1015.5
20260901152936 31 324 1.6 16.1 0.00 0.00 0.00 44 1015.6
20260901152433 31 323 4.8 16.1 0.00 0.00 0.00 43 1015.4
20260901151933 31 297 0.0 14.5 0.00 0.00 0.00 43 1015.6
20260901151433 31 318 0.0 9.7 0.00 0.00 0.00 44 1015.6
20260901150932 31 327 8.0 12.9 0.00 0.00 0.00 43 1015.4
20260901150431 31 322 1.6 12.9 0.00 0.00 0.00 43 1015.3
20260901145934 31 295 3.2 11.3 0.00 0.00 0.00 43 1015.4
20260901145430 31 316 4.8 12.9 0.00 0.00 0.00 42 1015.6
20260901143931 31 317 4.8 12.9 0.00 0.00 0.00 42 1015.7
20260901143433 32 82 0.0 9.7 0.00 0.00 0.00 41 1015.5
20260901142940 32 156 1.6 12.9 0.00 0.00 0.00 40 1015.6
20260901142433 32 320 3.2 14.5 0.00 0.00 0.00 40 1015.5
20260901141934 32 330 6.4 14.5 0.00 0.00 0.00 39 1015.6
20260901141436 32 303 1.6 16.1 0.00 0.00 0.00 40 1015.5
20260901140940 32 328 4.8 16.1 0.00 0.00 0.00 40 1015.5
20260901140434 32 80 0.0 11.3 0.00 0.00 0.00 40 1015.3
20260901135434 32 302 0.0 14.5 0.00 0.00 0.00 40 1015.6
20260901134426 33 112 1.6 3.2 0.00 0.00 0.00 37 1015.7
20260901133920 33 152 0.0 1.6 0.00 0.00 0.00 36 1015.7
20260901133407 32 54 0.0 11.3 0.00 0.00 0.00 38 1015.7
20260901132910 32 312 0.0 12.9 0.00 0.00 0.00 38 1015.7
20260901132407 32 316 3.2 12.9 0.00 0.00 0.00 38 1015.8
20260901131855 32 306 1.6 11.3 0.00 0.00 0.00 39 1015.8
20260901131358 32 322 4.8 11.3 0.00 0.00 0.00 37 1015.6
20260901130855 32 313 4.8 16.1 0.00 0.00 0.00 37 1015.7
20260901130342 32 311 3.2 16.1 0.00 0.00 0.00 38 1015.6
20260901124834 33 306 0.0 11.3 0.00 0.00 0.00 36 1015.8
20260901124334 34 322 0.0 11.3 0.00 0.00 0.00 37 1016.1
20260901123912 33 220 0.0 1.6 0.00 0.00 0.00 35 1015.9
20260901123333 33 146 0.0 6.4 0.00 0.00 0.00 35 1016.1
20260901122831 32 356 0.0 6.4 0.00 0.00 0.00 38 1016.1
20260901122338 32 310 3.2 6.4 0.00 0.00 0.00 38 1016.1
20260901121834 32 304 1.6 14.5 0.00 0.00 0.00 39 1016.1
20260901121334 32 322 0.0 14.5 0.00 0.00 0.00 39 1016.2
20260901120834 32 303 1.6 12.9 0.00 0.00 0.00 40 1016.2
20260901115835 32 213 0.0 4.8 0.00 0.00 0.00 39 1016.2
20260901115334 32 11 0.0 11.3 0.00 0.00 0.00 39 1016.2
20260901114833 32 349 1.6 14.5 0.00 0.00 0.00 42 1016.4
20260901114333 32 313 6.4 14.5 0.00 0.00 0.00 41 1016.2
20260901113833 32 330 1.6 12.9 0.00 0.00 0.00 42 1016.3
20260901112832 32 332 3.2 12.9 0.00 0.00 0.00 44 1016.2
20260901111330 31 315 0.0 6.4 0.00 0.00 0.00 44 1016.4
20260901110832 31 328 0.0 11.3 0.00 0.00 0.00 42 1016.5
20260901110331 31 312 6.4 14.5 0.00 0.00 0.00 43 1016.4
20260901105832 32 333 4.8 14.5 0.00 0.00 0.00 44 1016.4
20260901105331 33 339 1.6 6.4 0.00 0.00 0.00 44 1016.5
20260901104835 33 117 0.0 3.2 0.00 0.00 0.00 43 1016.4
20260901104330 32 152 0.0 3.2 0.00 0.00 0.00 44 1016.6
20260901103836 32 305 0.0 3.2 0.00 0.00 0.00 47 1016.6
20260901103331 32 143 0.0 4.8 0.00 0.00 0.00 45 1016.7
20260901102833 32 169 0.0 4.8 0.00 0.00 0.00 45 1016.6
20260901102333 32 134 0.0 3.2 0.00 0.00 0.00 45 1016.7
20260901101840 31 37 0.0 6.4 0.00 0.00 0.00 49 1016.9
20260901101333 31 325 0.0 6.4 0.00 0.00 0.00 49 1016.6
20260901100833 31 313 4.8 6.4 0.00 0.00 0.00 48 1016.7
20260901100337 31 15 1.6 9.7 0.00 0.00 0.00 51 1016.7